Regional Weather Roundup
Issued by NWS

Home | Current Version | Previous Version | Text Only | Print | Product List | Glossary Off
Versions: 1 2 3 4 5 6 7 8 9 10 11 12 13 14 15 16 17 18 19 20 21 22 23 24 25 26 27 28 29 30 31 32 33 34 35 36 37 38 39 40 41 42 43 44 45 46 47 48 49 50

000
ASUS43 KLOT 171903
RWRIL

ILLINOIS REGIONAL WEATHER ROUNDUP
NATIONAL WEATHER SERVICE CHICAGO/ROMEOVILLE IL
100 PM CST TUE JAN 17 2017

NOTE: "FAIR" INDICATES FEW OR NO CLOUDS BELOW 12,000 FEET WITH NO
SIGNIFICANT WEATHER AND/OR OBSTRUCTIONS TO VISIBILITY.

* THESE STATIONS ARE NOT UNDER NWS QUALITY CONTROL. THEY ALSO MAY NOT
  REPORT WEATHER SUCH AS PRECIPITATION OR FOG.

ILZ001-002-007-009-015-016-024-172000-
NORTHWEST ILLINOIS

CITY           SKY/WX    TMP DP  RH WIND       PRES   REMARKS
MOLINE         CLOUDY    37  34  89 W15       29.93R FOG     WCI  28
STERLING*      CLOUDY    36  35  96 W15       29.90S WCI  27
SAVANNA*       CLOUDY    36  34  93 W8        29.90S FOG     WCI  29
$$

ILZ003-004-008-010-011-017-018-172000-
NORTH CENTRAL ILLINOIS

CITY           SKY/WX    TMP DP  RH WIND       PRES   REMARKS
ROCKFORD       CLOUDY    37  35  92 W9        29.88F FOG     WCI  30
FREEPORT*      CLOUDY    34  34  99 W8        29.89S FOG     WCI  28
ROCHELLE*      CLOUDY    35  35  99 W10       29.88S FOG     WCI  28
DE KALB*       CLOUDY    36  36  99 W10       29.87S FOG     WCI  29
$$

ILZ005-006-012>014-019>023-172000-
NORTHEAST ILLINOIS

CITY           SKY/WX    TMP DP  RH WIND       PRES   REMARKS
CHICAGO-OHARE  CLOUDY    38  36  92 W9        29.85S WCI  31
CHICAGO-MIDWAY CLOUDY    37  36  96 W10       29.86S WCI  30
AURORA         CLOUDY    38  36  92 W14       29.88  WCI  30
LANSING*       CLOUDY    38  38 100 W13       29.88R WCI  30
JOLIET*        CLOUDY    38  38  99 W8        29.90R FOG     WCI  32
WAUKEGAN       CLOUDY    38  35  89 W8        29.83S WCI  32
DUPAGE AIRPORT CLOUDY    38  35  89 W10       29.85S WCI  31
WHEELING       CLOUDY    39  35  86 W7        29.86R WCI  34
MORRIS*        CLOUDY    37  36  98 W10G17    29.89S FOG     WCI  29
ROMEOVILLE*    CLOUDY    37  37 100 W12       29.88R WCI  29
NORTHERLY ISL    N/A     39  36  89 W10         N/A  WCI  32
$$

LMZ740>746-172000-
SOUTHERN LAKE MICHIGAN

STATION/POSITION SKY/WX   TEMP    WIND        PRES    VSBY  WAVE
                          AIR SEA DIR/SP/G                  HT/PER
                          (F)     (DEG/KT/KT) (MB)    (MI)  (FT/S)
HARRISON CRIB              40     260/ 10/ 12   N/A
BURNHAM HARBOR             39     270/ 11/ 12   N/A
CALUMET HARBOR             39     230/ 10/ 15 1010.6R
BURNS HARBOR               37     250/  9/ 10 1011.9S
$$

ILZ025>027-034>036-040-047-049-050-058-095>099-172000-
WEST-CENTRAL ILLINOIS

CITY           SKY/WX    TMP DP  RH WIND       PRES   REMARKS
QUINCY         CLOUDY    38  36  92 W12       30.00S WCI  30
GALESBURG*     CLOUDY    35  35 100 W14G20    29.96R FOG     WCI  26
MACOMB*        CLOUDY    36  36 100 W18       30.00S FOG     WCI  25
JACKSONVILLE*  CLOUDY    39  36  89 W14       29.99S WCI  31
PITTSFIELD*    CLOUDY    39  37  91 W9        30.01S WCI  33
$$

ILZ028>032-037-038-041>044-048-051>054-059>061-172000-
CENTRAL ILLINOIS

CITY           SKY/WX    TMP DP  RH WIND       PRES   REMARKS
DECATUR        CLOUDY    40  40 100 W14       29.97R FOG
PEORIA         CLOUDY    38  36  92 W14       29.95S WCI  30
LACON*         CLOUDY    36  36  99 W8        29.93S FOG     WCI  30
LINCOLN*       CLOUDY    40  38  92 W3        29.97R
SPRINGFIELD    CLOUDY    42  38  85 W13       29.99R
TAYLORVILLE    CLOUDY    41  41  97 W14       29.99S FOG
$$

ILZ033-039-045-046-055>057-062-063-172000-
EAST-CENTRAL ILLINOIS

CITY           SKY/WX    TMP DP  RH WIND       PRES   REMARKS
CHAMPAIGN      CLOUDY    43  40  89 W20       29.95R
MATTOON        CLOUDY    43  30  60 W12G20    29.96S
PARIS*         CLOUDY    43  42  93 W18       29.97S
$$

ILZ079-100>102-172000-
SOUTHWEST ILLINOIS

CITY           SKY/WX    TMP DP  RH WIND       PRES   REMARKS
ALTON          CLOUDY    43  41  93 W16       30.02F
BELLEVILLE     MOSUNNY   45  40  81 W10       30.01F
CAHOKIA*       CLOUDY    46  36  68 W12       30.02F
SPARTA*        CLOUDY    43  38  85 W10G16    30.04F
$$

ILZ064>066-069>071-074>076-080>082-084>086-088>090-092>094-172000-
SOUTH-CENTRAL ILLINOIS

CITY           SKY/WX    TMP DP  RH WIND       PRES   REMARKS
CARBONDALE     CLOUDY    44  40  85 W8        30.04F
CAIRO*         CLOUDY    45  40  83 SW9       30.05F
EFFINGHAM*     CLOUDY    45  42  92 SW9G16    30.01S
MARION         CLOUDY    45  43  93 W12       30.05S
MT. VERNON     CLOUDY    45  40  82 W9        30.02F
CENTRALIA*     CLOUDY    46  41  84 W14       30.00F
SALEM*         CLOUDY    46  41  82 W13       30.01S
$$

ILZ067-068-072-073-078-083-087-091-172000-
SOUTHEAST ILLINOIS

CITY           SKY/WX    TMP DP  RH WIND       PRES   REMARKS
LAWRENCEVILLE  CLOUDY    47  42  83 W13       29.99F
FLORA*         CLOUDY    47  42  82 SW13      30.01S
HARRISBURG*    CLOUDY    45  41  87 W13       30.04S
ROBINSON*      CLOUDY    45  41  86 W15       29.99F
CARMI*         CLOUDY    45  41  86 SW9       30.02S
$$

ABBREVIATIONS USED IN REMARKS
   TC - TEMPERATURE IN CELSIUS
  WCI - WIND CHILL INDEX
   HX - HEAT INDEX
  VSB - VISIBILITY
$$




USA.gov is the U.S. government's official web portal to all federal, state and local government web resources and services.